Retour au catalogue

FENGYUN 1C DEB

ActifPO
NORAD 31808·DEBRIS·🇨🇳 China

Lancé May 10, 1999 depuis Taiyuan Satellite Launch Center

Loading…

Prochains Passages (prochaines 24 heures)

TLE

FraisSource: Space-Track

Époque: Sep 14, 2026, 10:06 UTC

1 31808U 99025CGW 26257.42112943  .00012406  00000-0  21290-2 0  9992
2 31808  99.1969 121.1670 0036765  19.9566 340.3064 14.68428009616359

Suivez FENGYUN 1C DEB en temps réel avec AllMySat

Download on the App Store